[[{"header":{"parameterUnit":"m.s-1","parameterCategory":1,"la1":30.2991,"la2":30.254,"lo1":-89.0895,"lo2":-89.0444,"dy":0.0017,"dx":0.0017,"nx":28,"ny":28,"refTime":"2024-08-23T21:00:00:Z","depth":0,"parameterNumber":2,"parameterNumberName":"U-component_of_WINDS"},"data":[0,0,0,0,0,0,0,0,0,0,0,0,0,0,0,0,0,0,0,0,0,0,0,0,0,0,0,0,0,0,0,0,0,0,0,0,0,0,0,0,0,0,0,0,0,0,0,0,0,0,0,0,0,0,0,0,0,0,-4.2347,-4.2346,0,-4.2314,-4.2313,-4.2313,-4.2186,-4.2183,-4.218,-4.2177,-4.2148,-4.2149,-4.2151,0,0,0,0,0,0,0,0,0,0,0,0,0,-4.2306,-4.2308,-4.2347,-4.2346,-4.2346,-4.2314,-4.2313,-4.2313,-4.2186,-4.2183,-4.2179,-4.2176,-4.2147,-4.2149,-4.2152,0,0,0,0,0,0,0,0,0,0,0,0,0,-4.2304,-4.2308,-4.2347,-4.2279,-4.2272,-4.2314,-4.2313,-4.2313,-4.2187,-4.2183,-4.2178,-4.2174,-4.2146,-4.2149,-4.2152,-4.2258,0,0,-4.2161,-4.2162,0,0,0,0,0,0,0,0,-4.2304,-4.2305,-4.2289,-4.2284,-4.2276,-4.2249,-4.2288,-4.2295,-4.2188,-4.222,-4.2177,-4.2172,-4.2185,-4.2185,-4.2188,-4.2257,-4.2255,-4.2161,-4.2163,-4.2164,-4.2165,0,0,0,0,0,0,0,-4.2304,-4.2306,-4.2334,-4.2289,-4.2281,-4.2252,-4.2247,-4.2289,-4.2228,-4.2216,-4.2207,-4.2205,-4.2181,-4.2186,-4.2187,-4.2255,-4.2161,-4.2164,-4.2165,-4.2167,-4.2412,-4.2417,0,0,0,0,0,0,-4.2314,-4.2307,-4.2335,-4.2333,-4.228,-4.2256,-4.225,-4.2263,-4.2227,-4.2217,-4.2209,-4.2199,-4.2183,-4.2183,-4.2185,-4.2308,-4.2164,-4.2167,-4.2168,-4.2407,-4.2413,-4.2418,0,0,0,0,0,0,-4.2313,-4.2317,-4.2336,-4.2317,-4.2318,-4.2262,-4.2276,-4.2264,-4.2269,-4.2221,-4.221,-4.2224,-4.2179,-4.2181,-4.2241,-4.2306,-4.2168,-4.2171,-4.2402,-4.2409,-4.2416,-4.2555,0,0,0,0,0,0,-4.2313,-4.2318,-4.2356,-4.2319,-4.2319,-4.2391,-4.228,-4.2267,-4.2274,-4.2261,-4.2233,-4.2224,-4.2176,-4.2238,-4.2244,-4.2307,-4.2173,-4.2396,-4.2405,-4.2413,-4.2545,-4.2566,-4.2585,0,0,0,0,0,-4.2312,-4.2397,-4.2358,-4.2362,-4.2365,-4.2395,-4.2395,-4.2337,-4.2279,-4.2318,-4.2288,-4.2225,-4.2298,-4.2245,-4.2251,-4.2316,-4.2391,-4.2402,-4.2413,-4.2536,-4.2562,-4.2585,0,0,0,0,0,0,-4.2443,-4.239,-4.2347,-4.2423,-4.2415,-4.2373,-4.242,-4.2367,-4.2376,-4.2363,-4.2293,-4.2288,-4.2359,-4.2343,-4.2285,-4.2419,-4.2334,-4.2347,-4.2426,-4.245,-4.247,-4.2472,-4.2175,0,0,0,0,0,-4.248,-4.2507,-4.2461,-4.2532,-4.253,-4.2477,-4.2488,-4.2444,-4.2433,-4.2429,-4.2403,-4.2396,-4.2418,-4.2433,-4.245,-4.2543,-4.2536,-4.2591,-4.2611,-4.2628,-4.2639,-4.269,-4.2714,-4.2453,-4.2453,-4.2453,0,0,-4.2558,-4.2533,-4.2555,-4.2558,-4.2546,-4.2578,-4.2474,-4.2511,-4.2535,-4.2435,-4.249,-4.2472,-4.2459,-4.2537,-4.257,-4.2526,-4.271,-4.2641,-4.2655,-4.2657,-4.2703,-4.2728,-4.275,-4.2461,-4.2459,-4.2458,0,0,-4.2717,-4.27,-4.2758,-4.2749,-4.2733,-4.2697,-4.2712,-4.268,-4.2663,-4.2717,-4.2644,-4.2672,-4.271,-4.2705,-4.2708,-4.2869,-4.2812,-4.2877,-4.2982,-4.3032,-4.3053,-4.307,-4.313,-4.3151,-4.2889,-4.2889,-4.289,0,-4.2816,-4.2859,-4.2795,-4.2838,-4.2843,-4.2754,-4.2814,-4.2809,-4.28,-4.2807,-4.2758,-4.2806,-4.2791,-4.2867,-4.2907,-4.2912,-4.2928,-4.2879,-4.3054,-4.3072,-4.3088,-4.3143,-4.3165,-4.2897,-4.2896,-4.2896,-4.2895,0,-4.2983,-4.3014,-4.3064,-4.3057,-4.3068,-4.3119,-4.3066,-4.3085,-4.3042,-4.3013,-4.3071,-4.3051,-4.3064,-4.3079,-4.3037,-4.3151,-4.3124,-4.3067,-4.298,-4.3122,-4.3173,-4.3193,-4.2909,-4.2906,-4.2904,-4.2902,0,0,-4.322,-4.3179,-4.3199,-4.3196,-4.3173,-4.3197,-4.3247,-4.3258,-4.3277,-4.3275,-4.3316,-4.3352,-4.3299,-4.3302,-4.326,-4.3304,-4.3436,-4.324,-4.3239,-4.3278,-4.3562,-4.3606,-4.3631,-4.3398,-4.3402,-4.3405,-4.3563,0,-4.3372,-4.3451,-4.3397,-4.3486,-4.3516,-4.3434,-4.3478,-4.347,-4.3445,-4.3469,-4.3441,-4.3469,-4.3396,-4.3398,-4.3438,-4.3411,-4.3492,-4.3399,-4.3437,-4.344,-4.3443,-4.3658,-4.3703,-4.3854,-4.3583,-4.3586,-4.3589,0,-4.3558,-4.3564,-4.3656,-4.363,-4.3641,-4.368,-4.3688,-4.3711,-4.3703,-4.3682,-4.3687,-4.3635,-4.3684,-4.36,-4.3669,-4.3607,-4.362,-4.361,-4.3614,-4.3616,-4.3522,-4.3666,-4.39,-4.3923,-4.3619,-4.3617,-4.3615,0,-4.3723,-4.3755,-4.3814,-4.3814,-4.3785,-4.3816,-4.3805,-4.3792,-4.3803,-4.3812,-4.3819,-4.3833,-4.3842,-4.3855,-4.3809,-4.3752,-4.3885,-4.3796,-4.3871,-4.3872,-4.3901,-4.39,-4.4142,-4.391,-4.391,-4.391,-4.3909,0,-4.3898,-4.3958,-4.3888,-4.3925,-4.3992,-4.3931,-4.3999,-4.398,-4.397,-4.4004,-4.3934,-4.3968,-4.3905,-4.3934,-4.3898,-4.3962,-4.3966,-4.3952,-4.3942,-4.3958,-4.396,-4.3965,-4.3954,-4.3915,-4.3914,-4.3913,-4.3912,0,-4.4092,-4.4048,-4.4108,-4.4077,-4.4071,-4.4121,-4.4095,-4.4129,-4.4101,-4.4145,-4.4152,-4.4108,-4.4138,-4.4093,-4.4119,-4.4095,-4.4183,-4.4157,-4.4186,-4.4178,-4.4255,-4.4249,-4.4509,-4.4541,-4.4289,-4.4291,-4.4293,0,-4.4206,-4.4251,-4.4225,-4.4242,-4.4235,-4.4264,-4.4276,-4.4219,-4.4235,-4.423,-4.4266,-4.429,-4.4306,-4.4359,-4.4331,-4.4351,-4.4325,-4.4415,-4.4327,-4.4344,-4.4328,-4.4326,-4.4331,-4.4433,-4.4436,-4.4438,-4.444,0,-4.4414,-4.4391,-4.4409,-4.4422,-4.4438,-4.4446,-4.4448,-4.4467,-4.4408,-4.443,-4.4459,-4.4472,-4.4499,-4.4525,-4.4538,-4.453,-4.4477,-4.4468,-4.4487,-4.4504,-4.4519,-4.4513,-4.4235,-4.4462,-4.446,-4.4458,-4.4457,-4.4456,-4.4572,-4.4609,-4.4597,-4.4621,-4.4617,-4.4622,-4.4654,-4.463,-4.4653,-4.4669,-4.4636,-4.4675,-4.4668,-4.4681,-4.4679,-4.471,-4.4671,-4.4697,-4.4704,-4.4712,-4.4724,-4.4514,-4.4712,-4.4712,-4.4711,-4.471,-4.471,0,-4.4777,-4.4766,-4.4789,-4.4795,-4.4815,-4.4763,-4.4764,-4.4785,-4.482,-4.4818,-4.4836,-4.4872,-4.4898,-4.4873,-4.4894,-4.4924,-4.4901,-4.4932,-4.4929,-4.4929,-4.4757,-4.4739,-4.4951,-4.4951,-4.4951,-4.4951,-4.4951,-4.4951,-4.4886,-4.4946,-4.4922,-4.4981,-4.497,-4.5006,-4.5012,-4.5017,-4.5015,-4.5058,-4.5079,-4.5063,-4.5053,-4.5073,-4.5096,-4.5088,-4.51,-4.514,-4.5124,-4.4964,-4.494,-4.4918,-4.4901,-4.5143,-4.5143,-4.5293,-4.5294,-4.5296]},{"header":{"parameterUnit":"m.s-1","parameterCategory":1,"la1":30.2991,"la2":30.254,"lo1":-89.0895,"lo2":-89.0444,"dy":0.0017,"dx":0.0017,"nx":28,"ny":28,"refTime":"2024-08-23T21:00:00:Z","depth":0,"parameterNumber":3,"parameterNumberName":"V-component_of_WINDS"},"data":[0,0,0,0,0,0,0,0,0,0,0,0,0,0,0,0,0,0,0,0,0,0,0,0,0,0,0,0,0,0,0,0,0,0,0,0,0,0,0,0,0,0,0,0,0,0,0,0,0,0,0,0,0,0,0,0,0,0,1.8288,1.8287,0,1.8282,1.8282,1.8281,1.8327,1.8329,1.833,1.8331,1.8318,1.8317,1.8315,0,0,0,0,0,0,0,0,0,0,0,0,0,1.8333,1.8332,1.8288,1.8287,1.8287,1.8282,1.8282,1.8281,1.8327,1.8329,1.833,1.8332,1.8319,1.8317,1.8315,0,0,0,0,0,0,0,0,0,0,0,0,0,1.8318,1.8332,1.8288,1.831,1.8312,1.8282,1.8282,1.8281,1.8327,1.8329,1.8331,1.8333,1.832,1.8317,1.8315,1.8261,0,0,1.8308,1.8307,0,0,0,0,0,0,0,0,1.8319,1.8317,1.8307,1.8308,1.831,1.8307,1.8293,1.8274,1.8326,1.8321,1.8331,1.8334,1.8313,1.8311,1.8305,1.8261,1.826,1.8308,1.8306,1.8305,1.8305,0,0,0,0,0,0,0,1.832,1.8317,1.8285,1.8306,1.8309,1.8318,1.8318,1.829,1.8306,1.8321,1.8325,1.8324,1.8314,1.8308,1.8305,1.826,1.8308,1.8306,1.8304,1.8303,1.817,1.8168,0,0,0,0,0,0,1.8319,1.8318,1.8285,1.8285,1.832,1.8316,1.8316,1.8306,1.8306,1.8308,1.8322,1.8326,1.8311,1.8308,1.8305,1.8241,1.8305,1.8303,1.8302,1.8172,1.817,1.8167,0,0,0,0,0,0,1.832,1.8316,1.8285,1.8302,1.8299,1.8313,1.8302,1.8305,1.8299,1.8307,1.8309,1.8313,1.8312,1.8308,1.8272,1.8241,1.8302,1.83,1.8175,1.8171,1.8168,1.8113,0,0,0,0,0,0,1.8321,1.8316,1.8297,1.8302,1.8298,1.8254,1.83,1.8304,1.8295,1.83,1.8299,1.83,1.8313,1.8275,1.827,1.8239,1.8298,1.8177,1.8173,1.8169,1.8118,1.8109,1.8101,0,0,0,0,0,1.8322,1.828,1.8295,1.8291,1.8275,1.8252,1.825,1.8268,1.8293,1.8273,1.8278,1.83,1.8247,1.8271,1.8265,1.8234,1.8179,1.8174,1.817,1.8122,1.811,1.8101,0,0,0,0,0,0,1.8268,1.8281,1.8298,1.8257,1.8253,1.826,1.8235,1.8255,1.8243,1.8248,1.8269,1.8268,1.8227,1.8227,1.8255,1.8181,1.8217,1.8211,1.8182,1.8172,1.8163,1.8163,1.8296,0,0,0,0,0,1.8252,1.8235,1.8246,1.8208,1.8206,1.8221,1.8212,1.8226,1.8222,1.822,1.8223,1.8217,1.8198,1.8186,1.8169,1.8119,1.8118,1.8095,1.8086,1.8079,1.8072,1.8044,1.8033,1.8151,1.8151,1.8152,0,0,1.8217,1.8222,1.8209,1.8197,1.8196,1.8176,1.8219,1.8195,1.818,1.8216,1.8182,1.8184,1.8178,1.8135,1.8115,1.8133,1.804,1.8073,1.8067,1.8064,1.8038,1.8027,1.8017,1.8148,1.8149,1.8149,0,0,1.8143,1.8146,1.8114,1.8113,1.8112,1.8123,1.8115,1.8119,1.8122,1.809,1.8116,1.8097,1.8066,1.806,1.8053,1.7979,1.7998,1.7973,1.7926,1.7899,1.789,1.7881,1.7853,1.7842,1.7967,1.7967,1.7967,0,1.8099,1.8071,1.8095,1.807,1.8063,1.8098,1.8065,1.8062,1.8055,1.8048,1.8069,1.8031,1.8029,1.7984,1.7966,1.796,1.795,1.7971,1.789,1.7882,1.7874,1.7847,1.7836,1.7963,1.7964,1.7964,1.7964,0,1.8016,1.7996,1.797,1.7965,1.7955,1.7926,1.7944,1.7931,1.7947,1.7955,1.792,1.792,1.7904,1.7895,1.791,1.7852,1.7863,1.7887,1.7922,1.7859,1.7834,1.7824,1.7959,1.796,1.7961,1.7962,0,0,1.7904,1.7914,1.7904,1.7902,1.7904,1.7888,1.786,1.7847,1.7835,1.7829,1.7805,1.7778,1.78,1.7793,1.7807,1.7783,1.7721,1.7809,1.781,1.7791,1.7655,1.7636,1.7623,1.7736,1.7734,1.7733,1.7655,0,1.783,1.7784,1.7806,1.7757,1.7738,1.7772,1.7748,1.7745,1.7752,1.7736,1.7743,1.7723,1.7755,1.775,1.7729,1.7734,1.7694,1.774,1.771,1.7709,1.7708,1.761,1.7589,1.7516,1.7646,1.7644,1.7643,0,1.7736,1.7729,1.7679,1.7685,1.7678,1.7656,1.7645,1.763,1.7628,1.7634,1.7626,1.7646,1.7617,1.7655,1.7614,1.7645,1.7635,1.7635,1.7633,1.7628,1.767,1.76,1.7493,1.7481,1.7628,1.7629,1.763,0,1.7657,1.7635,1.7602,1.7599,1.7606,1.7589,1.7591,1.7591,1.7582,1.7572,1.7566,1.7553,1.7544,1.7532,1.7547,1.7574,1.7503,1.7543,1.7505,1.7505,1.7486,1.7486,1.7373,1.7484,1.7484,1.7485,1.7485,0,1.757,1.7537,1.7566,1.7546,1.751,1.7535,1.7498,1.7503,1.7503,1.7482,1.7511,1.7491,1.7513,1.7494,1.7506,1.7469,1.7465,1.7468,1.7471,1.7464,1.7463,1.7455,1.7459,1.7482,1.7482,1.7483,1.7483,0,1.7474,1.7492,1.7458,1.7469,1.7471,1.7443,1.7451,1.7431,1.7442,1.7415,1.741,1.7425,1.7404,1.7419,1.7398,1.7406,1.7357,1.7368,1.7358,1.736,1.732,1.7323,1.7195,1.7179,1.7303,1.7302,1.7301,0,1.7416,1.7392,1.74,1.739,1.739,1.7373,1.7364,1.7388,1.7377,1.7374,1.7354,1.7336,1.7323,1.7288,1.7296,1.7279,1.7289,1.7245,1.7286,1.7279,1.7285,1.7285,1.7281,1.7236,1.7234,1.7233,1.7232,0,1.731,1.7321,1.7308,1.7299,1.7289,1.7282,1.7277,1.7266,1.7291,1.7277,1.7258,1.7248,1.7227,1.7208,1.7195,1.7195,1.7216,1.722,1.721,1.7201,1.7195,1.7195,1.7332,1.7222,1.7223,1.7224,1.7224,1.7225,1.7229,1.7209,1.7212,1.7197,1.7197,1.7192,1.7174,1.7183,1.7168,1.7155,1.717,1.7146,1.7144,1.7129,1.7126,1.7106,1.7123,1.7109,1.7105,1.71,1.7094,1.7201,1.7104,1.7104,1.7104,1.7104,1.7105,0,1.7122,1.7127,1.7113,1.7107,1.7095,1.7121,1.7117,1.7104,1.7083,1.7081,1.7068,1.7045,1.7028,1.7035,1.7019,1.7001,1.701,1.6995,1.6995,1.6994,1.708,1.7089,1.6988,1.6988,1.6988,1.6988,1.6988,1.6988,1.7065,1.7033,1.7044,1.7011,1.7015,1.6994,1.6989,1.6984,1.6982,1.6956,1.6943,1.6949,1.6949,1.6934,1.6918,1.692,1.6911,1.6893,1.6898,1.6977,1.6989,1.6999,1.7008,1.6891,1.6891,1.6814,1.6813,1.6812]}]]